Year,Month,Day,Hour,Minute,Value (Times are PST for temperature in C)
2013,07,15,00,00,14.90
2013,07,15,00,01,14.90
2013,07,15,00,02,14.80
2013,07,15,00,03,14.80
2013,07,15,00,04,14.80
2013,07,15,00,05,14.80
2013,07,15,00,06,14.80
2013,07,15,00,07,14.80
2013,07,15,00,08,14.80
2013,07,15,00,09,14.80
2013,07,15,00,10,14.80
2013,07,15,00,11,14.80
2013,07,15,00,12,14.80
2013,07,15,00,13,14.80
2013,07,15,00,14,14.80
2013,07,15,00,15,14.80
2013,07,15,00,16,14.80
2013,07,15,00,17,14.80
2013,07,15,00,18,14.80
2013,07,15,00,19,14.70
2013,07,15,00,20,14.60
2013,07,15,00,21,14.60
2013,07,15,00,22,14.60
2013,07,15,00,23,14.50
2013,07,15,00,24,14.60
2013,07,15,00,25,14.60
2013,07,15,00,26,14.60
2013,07,15,00,27,14.60
2013,07,15,00,28,14.60
2013,07,15,00,29,14.60
2013,07,15,00,30,14.60
2013,07,15,00,31,14.50
2013,07,15,00,32,14.50
2013,07,15,00,33,14.50
2013,07,15,00,34,14.40
2013,07,15,00,35,14.30
2013,07,15,00,36,14.30
2013,07,15,00,37,14.30
2013,07,15,00,38,14.20
2013,07,15,00,39,14.20
2013,07,15,00,40,14.20
2013,07,15,00,41,14.20
2013,07,15,00,42,14.20
2013,07,15,00,43,14.20
2013,07,15,00,44,14.10
2013,07,15,00,45,14.10
2013,07,15,00,46,14.10
2013,07,15,00,47,14.10
2013,07,15,00,48,14.00
2013,07,15,00,49,14.00
2013,07,15,00,50,14.00
2013,07,15,00,51,14.00
2013,07,15,00,52,14.00
2013,07,15,00,53,14.00
2013,07,15,00,54,14.10
2013,07,15,00,55,14.10
2013,07,15,00,56,14.10
2013,07,15,00,57,14.10
2013,07,15,00,58,14.10
2013,07,15,00,59,14.10
2013,07,15,01,00,14.10
2013,07,15,01,01,14.10
2013,07,15,01,02,14.10
2013,07,15,01,03,14.00
2013,07,15,01,04,14.00
2013,07,15,01,05,14.00
2013,07,15,01,06,13.90
2013,07,15,01,07,13.90
2013,07,15,01,08,13.90
2013,07,15,01,09,13.90
2013,07,15,01,10,13.80
2013,07,15,01,11,13.80
2013,07,15,01,12,13.80
2013,07,15,01,13,13.70
2013,07,15,01,14,13.70
2013,07,15,01,15,13.70
2013,07,15,01,16,13.70
2013,07,15,01,17,13.70
2013,07,15,01,18,13.70
2013,07,15,01,19,13.70
2013,07,15,01,20,13.70
2013,07,15,01,21,13.70
2013,07,15,01,22,13.70
2013,07,15,01,23,13.70
2013,07,15,01,24,13.70
2013,07,15,01,25,13.70
2013,07,15,01,26,13.70
2013,07,15,01,27,13.70
2013,07,15,01,28,13.70
2013,07,15,01,29,13.70
2013,07,15,01,30,13.70
2013,07,15,01,31,13.70
2013,07,15,01,32,13.70
2013,07,15,01,33,13.70
2013,07,15,01,34,13.70
2013,07,15,01,35,13.70
2013,07,15,01,36,13.70
2013,07,15,01,37,13.70
2013,07,15,01,38,13.70
2013,07,15,01,39,13.70
2013,07,15,01,40,13.70
2013,07,15,01,41,13.70
2013,07,15,01,42,13.70
2013,07,15,01,43,13.80
2013,07,15,01,44,13.80
2013,07,15,01,45,13.90
2013,07,15,01,46,13.90
2013,07,15,01,47,13.90
2013,07,15,01,48,14.00
2013,07,15,01,49,14.00
2013,07,15,01,50,14.00
2013,07,15,01,51,14.10
2013,07,15,01,52,14.10
2013,07,15,01,53,14.10
2013,07,15,01,54,14.20
2013,07,15,01,55,14.20
2013,07,15,01,56,14.20
2013,07,15,01,57,14.30
2013,07,15,01,58,14.40
2013,07,15,01,59,14.40
2013,07,15,02,00,14.50
2013,07,15,02,01,14.50
2013,07,15,02,02,14.50
2013,07,15,02,03,14.60
2013,07,15,02,04,14.60
2013,07,15,02,05,14.70
2013,07,15,02,06,14.70
2013,07,15,02,07,14.70
2013,07,15,02,08,14.80
2013,07,15,02,09,14.80
2013,07,15,02,10,14.80
2013,07,15,02,11,14.80
2013,07,15,02,12,14.80
2013,07,15,02,13,14.80
2013,07,15,02,14,14.80
2013,07,15,02,15,14.80
2013,07,15,02,16,14.80
2013,07,15,02,17,14.80
2013,07,15,02,18,14.80
2013,07,15,02,19,14.80
2013,07,15,02,20,14.80
2013,07,15,02,21,14.80
2013,07,15,02,22,14.80
2013,07,15,02,23,14.70
2013,07,15,02,24,14.70
2013,07,15,02,25,14.70
2013,07,15,02,26,14.60
2013,07,15,02,27,14.60
2013,07,15,02,28,14.50
2013,07,15,02,29,14.50
2013,07,15,02,30,14.40
2013,07,15,02,31,14.40
2013,07,15,02,32,14.30
2013,07,15,02,33,14.20
2013,07,15,02,34,14.20
2013,07,15,02,35,14.20
2013,07,15,02,36,14.10
2013,07,15,02,37,14.00
2013,07,15,02,38,14.00
2013,07,15,02,39,13.90
2013,07,15,02,40,13.90
2013,07,15,02,41,13.80
2013,07,15,02,42,13.80
2013,07,15,02,43,13.70
2013,07,15,02,44,13.70
2013,07,15,02,45,13.70
2013,07,15,02,46,13.70
2013,07,15,02,47,13.70
2013,07,15,02,48,13.70
2013,07,15,02,49,13.70
2013,07,15,02,50,13.70
2013,07,15,02,51,13.70
2013,07,15,02,52,13.70
2013,07,15,02,53,13.60
2013,07,15,02,54,13.60
2013,07,15,02,55,13.60
2013,07,15,02,56,13.50
2013,07,15,02,57,13.50
2013,07,15,02,58,13.50
2013,07,15,02,59,13.40
2013,07,15,03,00,13.40
2013,07,15,03,01,13.40
2013,07,15,03,02,13.30
2013,07,15,03,03,13.30
2013,07,15,03,04,13.30
2013,07,15,03,05,13.30
2013,07,15,03,06,13.30
2013,07,15,03,07,13.30
2013,07,15,03,08,13.30
2013,07,15,03,09,13.20
2013,07,15,03,10,13.20
2013,07,15,03,11,13.20
2013,07,15,03,12,13.20
2013,07,15,03,13,13.20
2013,07,15,03,14,13.20
2013,07,15,03,15,13.20
2013,07,15,03,16,13.10
2013,07,15,03,17,13.10
2013,07,15,03,18,13.10
2013,07,15,03,19,13.10
2013,07,15,03,20,13.10
2013,07,15,03,21,13.10
2013,07,15,03,22,13.00
2013,07,15,03,23,13.00
2013,07,15,03,24,13.00
2013,07,15,03,25,12.90
2013,07,15,03,26,12.90
2013,07,15,03,27,12.90
2013,07,15,03,28,12.90
2013,07,15,03,29,12.80
2013,07,15,03,30,12.80
2013,07,15,03,31,12.80
2013,07,15,03,32,12.80
2013,07,15,03,33,12.80
2013,07,15,03,34,12.80
2013,07,15,03,35,12.80
2013,07,15,03,36,12.80
2013,07,15,03,37,12.80
2013,07,15,03,38,12.80
2013,07,15,03,39,12.80
2013,07,15,03,40,12.80
2013,07,15,03,41,12.80
2013,07,15,03,42,12.80
2013,07,15,03,43,12.80
2013,07,15,03,44,12.80
2013,07,15,03,45,12.80
2013,07,15,03,46,12.80
2013,07,15,03,47,12.80
2013,07,15,03,48,12.80
2013,07,15,03,49,12.80
2013,07,15,03,50,12.80
2013,07,15,03,51,12.70
2013,07,15,03,52,12.70
2013,07,15,03,53,12.70
2013,07,15,03,54,12.70
2013,07,15,03,55,12.70
2013,07,15,03,56,12.70
2013,07,15,03,57,12.70
2013,07,15,03,58,12.70
2013,07,15,03,59,12.70
2013,07,15,04,00,12.70
2013,07,15,04,01,12.60
2013,07,15,04,02,12.60
2013,07,15,04,03,12.60
2013,07,15,04,04,12.60
2013,07,15,04,05,12.60
2013,07,15,04,06,12.50
2013,07,15,04,07,12.50
2013,07,15,04,08,12.50
2013,07,15,04,09,12.50
2013,07,15,04,10,12.50
2013,07,15,04,11,12.40
2013,07,15,04,12,12.40
2013,07,15,04,13,12.40
2013,07,15,04,14,12.40
2013,07,15,04,15,12.30
2013,07,15,04,16,12.30
2013,07,15,04,17,12.30
2013,07,15,04,18,12.30
2013,07,15,04,19,12.30
2013,07,15,04,20,12.30
2013,07,15,04,21,12.30
2013,07,15,04,22,12.30
2013,07,15,04,23,12.30
2013,07,15,04,24,12.30
2013,07,15,04,25,12.30
2013,07,15,05,49,11.30
2013,07,15,05,50,11.30
2013,07,15,05,51,11.30
2013,07,15,05,52,11.30
2013,07,15,05,53,11.30
2013,07,15,05,54,11.30
2013,07,15,05,55,11.30
2013,07,15,05,56,11.30
2013,07,15,05,57,11.30
2013,07,15,05,58,11.30
2013,07,15,05,59,11.30
2013,07,15,06,00,11.30
2013,07,15,06,01,11.30
2013,07,15,06,02,11.30
2013,07,15,06,03,11.30
2013,07,15,06,04,11.30
2013,07,15,06,05,11.30
2013,07,15,06,06,11.30
2013,07,15,06,07,11.30
2013,07,15,06,08,11.30
2013,07,15,06,09,11.30
2013,07,15,06,10,11.30
2013,07,15,06,11,11.30
2013,07,15,06,12,11.30
2013,07,15,06,13,11.30
2013,07,15,06,14,11.30
2013,07,15,06,15,11.30
2013,07,15,06,16,11.30
2013,07,15,06,17,11.30
2013,07,15,06,18,11.30
2013,07,15,06,19,11.30
2013,07,15,06,20,11.30
2013,07,15,06,21,11.30
2013,07,15,06,22,11.20
2013,07,15,06,23,11.20
2013,07,15,06,24,11.20
2013,07,15,06,25,11.20
2013,07,15,06,26,11.20
2013,07,15,06,27,11.20
2013,07,15,06,28,11.20
2013,07,15,06,29,11.20
2013,07,15,06,30,11.20
2013,07,15,06,31,11.20
2013,07,15,06,32,11.20
2013,07,15,06,33,11.30
2013,07,15,06,34,11.30
2013,07,15,06,35,11.30
2013,07,15,06,36,11.30
2013,07,15,06,37,11.40
2013,07,15,06,38,11.40
2013,07,15,06,39,11.40
2013,07,15,06,40,11.40
2013,07,15,06,41,11.40
2013,07,15,06,42,11.60
2013,07,15,06,43,11.60
2013,07,15,06,44,11.60
2013,07,15,06,45,11.70
2013,07,15,06,46,11.70
2013,07,15,06,47,11.80
2013,07,15,06,48,11.80
2013,07,15,06,49,11.90
2013,07,15,06,50,12.00
2013,07,15,06,51,12.10
2013,07,15,06,52,12.20
2013,07,15,06,53,12.30
2013,07,15,06,54,12.30
2013,07,15,06,55,12.40
2013,07,15,06,56,12.50
2013,07,15,06,57,12.50
2013,07,15,06,58,12.60
2013,07,15,06,59,12.70
2013,07,15,07,00,12.80
2013,07,15,07,01,12.80
2013,07,15,07,02,12.80
2013,07,15,07,03,12.80
2013,07,15,07,04,12.90
2013,07,15,07,05,13.00
2013,07,15,07,06,13.10
2013,07,15,07,07,13.10
2013,07,15,07,08,13.10
2013,07,15,07,09,13.20
2013,07,15,07,10,13.20
2013,07,15,07,11,13.30
2013,07,15,07,12,13.30
2013,07,15,07,13,13.40
2013,07,15,07,14,13.50
2013,07,15,07,15,13.60
2013,07,15,07,16,13.60
2013,07,15,07,17,13.70
2013,07,15,07,18,13.70
2013,07,15,07,19,13.70
2013,07,15,07,20,13.70
2013,07,15,07,21,13.80
2013,07,15,07,22,13.80
2013,07,15,07,23,13.90
2013,07,15,07,24,13.90
2013,07,15,07,25,14.00
2013,07,15,07,26,14.00
2013,07,15,07,27,14.10
2013,07,15,07,28,14.10
2013,07,15,07,29,14.10
2013,07,15,07,30,14.20
2013,07,15,07,31,14.20
2013,07,15,07,32,14.20
2013,07,15,07,33,14.20
2013,07,15,07,34,14.30
2013,07,15,07,35,14.30
2013,07,15,07,36,14.30
2013,07,15,07,37,14.30
2013,07,15,07,38,14.30
2013,07,15,07,39,14.30
2013,07,15,07,40,14.30
2013,07,15,07,41,14.40
2013,07,15,07,42,14.40
2013,07,15,07,43,14.40
2013,07,15,07,44,14.50
2013,07,15,07,45,14.50
2013,07,15,07,46,14.50
2013,07,15,07,47,14.60
2013,07,15,07,48,14.60
2013,07,15,07,49,14.60
2013,07,15,07,50,14.60
2013,07,15,07,51,14.70
2013,07,15,07,52,14.70
2013,07,15,07,53,14.80
2013,07,15,07,54,14.80
2013,07,15,07,55,14.80
2013,07,15,07,56,14.80
2013,07,15,07,57,14.80
2013,07,15,07,58,14.90
2013,07,15,07,59,14.90
2013,07,15,08,00,14.90
2013,07,15,08,01,14.90
2013,07,15,08,02,15.00
2013,07,15,08,03,15.00
2013,07,15,08,04,14.90
2013,07,15,08,05,15.00
2013,07,15,08,06,15.00
2013,07,15,08,07,15.10
2013,07,15,08,08,15.10
2013,07,15,08,09,15.20
2013,07,15,08,10,15.20
2013,07,15,08,11,15.30
2013,07,15,08,12,15.30
2013,07,15,08,13,15.40
2013,07,15,08,14,15.40
2013,07,15,08,15,15.50
2013,07,15,08,16,15.50
2013,07,15,08,17,15.50
2013,07,15,08,18,15.60
2013,07,15,08,19,15.60
2013,07,15,08,20,15.70
2013,07,15,08,21,15.70
2013,07,15,08,22,15.80
2013,07,15,08,23,15.80
2013,07,15,08,24,15.80
2013,07,15,08,25,15.80
2013,07,15,08,26,15.90
2013,07,15,08,27,15.90
2013,07,15,08,28,15.90
2013,07,15,08,29,16.10
2013,07,15,08,30,16.10
2013,07,15,08,31,16.10
2013,07,15,08,32,16.10
2013,07,15,08,33,16.20
2013,07,15,08,34,16.30
2013,07,15,08,35,16.40
2013,07,15,08,36,16.40
2013,07,15,08,37,16.60
2013,07,15,08,38,16.70
2013,07,15,08,39,16.90
2013,07,15,08,40,17.00
2013,07,15,08,41,17.00
2013,07,15,08,42,17.10
2013,07,15,08,43,17.10
2013,07,15,08,44,17.10
2013,07,15,08,45,17.10
2013,07,15,08,46,17.10
2013,07,15,08,47,17.10
2013,07,15,08,48,17.10
2013,07,15,08,49,17.10
2013,07,15,08,50,17.20
2013,07,15,08,51,17.30
2013,07,15,08,52,17.30
2013,07,15,08,53,17.40
2013,07,15,08,54,17.50
2013,07,15,08,55,17.60
2013,07,15,08,56,17.70
2013,07,15,08,57,17.80
2013,07,15,08,58,17.90
2013,07,15,08,59,18.10
2013,07,15,09,00,18.20
2013,07,15,09,01,18.20
2013,07,15,09,02,18.30
2013,07,15,09,03,18.40
2013,07,15,09,04,18.60
2013,07,15,09,05,18.70
2013,07,15,09,06,18.80
2013,07,15,09,07,18.90
2013,07,15,09,08,18.90
2013,07,15,09,09,18.90
2013,07,15,09,10,18.90
2013,07,15,09,11,18.90
2013,07,15,09,12,18.90
2013,07,15,09,13,18.90
2013,07,15,09,14,18.90
2013,07,15,09,15,18.80
2013,07,15,09,16,18.80
2013,07,15,09,17,18.80
2013,07,15,09,18,18.80
2013,07,15,09,19,18.70
2013,07,15,09,20,18.70
2013,07,15,09,21,18.70
2013,07,15,09,22,18.70
2013,07,15,09,23,18.70
2013,07,15,09,24,18.80
2013,07,15,09,25,18.80
2013,07,15,09,26,18.90
2013,07,15,09,27,18.90
2013,07,15,09,28,18.90
2013,07,15,09,29,18.80
2013,07,15,09,30,18.80
2013,07,15,09,31,18.70
2013,07,15,09,32,18.70
2013,07,15,09,33,18.70
2013,07,15,09,34,18.60
2013,07,15,09,35,18.60
2013,07,15,09,36,18.70
2013,07,15,09,37,18.70
2013,07,15,09,38,18.70
2013,07,15,09,39,18.80
2013,07,15,09,40,18.80
2013,07,15,09,41,18.90
2013,07,15,09,42,18.90
2013,07,15,09,43,18.90
2013,07,15,09,44,18.90
2013,07,15,09,45,18.90
2013,07,15,09,46,19.10
2013,07,15,09,47,19.10
2013,07,15,09,48,19.10
2013,07,15,09,49,19.10
2013,07,15,09,50,19.10
2013,07,15,09,51,19.10
2013,07,15,09,52,19.10
2013,07,15,09,53,19.10
2013,07,15,09,54,19.20
2013,07,15,09,55,19.30
2013,07,15,09,56,19.40
2013,07,15,09,57,19.50
2013,07,15,09,58,19.60
2013,07,15,09,59,19.70
2013,07,15,10,00,19.80
2013,07,15,10,01,19.90
2013,07,15,10,02,19.90
2013,07,15,10,03,19.90
2013,07,15,10,04,19.90
2013,07,15,10,05,19.90
2013,07,15,10,06,19.90
2013,07,15,10,07,19.90
2013,07,15,10,08,19.90
2013,07,15,10,09,20.10
2013,07,15,10,10,20.20
2013,07,15,10,11,20.30
2013,07,15,10,12,20.40
2013,07,15,10,13,20.40
2013,07,15,10,14,20.50
2013,07,15,10,15,20.60
2013,07,15,10,16,20.60
2013,07,15,10,17,20.70
2013,07,15,10,18,20.70
2013,07,15,10,19,20.70
2013,07,15,10,20,20.80
2013,07,15,10,21,20.90
2013,07,15,10,22,20.90
2013,07,15,10,23,20.90
2013,07,15,10,24,20.90
2013,07,15,10,25,21.00
2013,07,15,10,26,21.10
2013,07,15,10,27,21.20
2013,07,15,10,28,21.30
2013,07,15,10,29,21.30
2013,07,15,10,30,21.30
2013,07,15,10,31,21.30
2013,07,15,10,32,21.30
2013,07,15,10,33,21.30
2013,07,15,10,34,21.30
2013,07,15,10,35,21.30
2013,07,15,10,36,21.40
2013,07,15,10,37,21.60
2013,07,15,10,38,21.60
2013,07,15,10,39,21.70
2013,07,15,10,40,21.70
2013,07,15,10,41,21.80
2013,07,15,10,42,21.80
2013,07,15,10,43,21.80
2013,07,15,10,44,21.70
2013,07,15,10,45,21.60
2013,07,15,10,46,21.60
2013,07,15,10,47,21.60
2013,07,15,10,48,21.40
2013,07,15,10,49,21.40
2013,07,15,10,50,21.40
2013,07,15,10,51,21.40
2013,07,15,10,52,21.40
2013,07,15,10,53,21.60
2013,07,15,10,54,21.60
2013,07,15,10,55,21.60
2013,07,15,10,56,21.70
2013,07,15,10,57,21.80
2013,07,15,10,58,21.90
2013,07,15,10,59,21.90
2013,07,15,11,00,22.00
2013,07,15,11,01,22.00
2013,07,15,11,02,22.00
2013,07,15,11,03,22.00
2013,07,15,11,04,22.00
2013,07,15,11,05,21.90
2013,07,15,11,06,21.90
2013,07,15,11,07,21.90
2013,07,15,11,08,22.00
2013,07,15,11,09,22.10
2013,07,15,11,10,22.20
2013,07,15,11,11,22.30
2013,07,15,11,12,22.40
2013,07,15,11,13,22.40
2013,07,15,11,14,22.50
2013,07,15,11,15,22.50
2013,07,15,11,16,22.50
2013,07,15,11,17,22.40
2013,07,15,11,18,22.40
2013,07,15,11,19,22.30
2013,07,15,11,20,22.30
2013,07,15,11,21,22.30
2013,07,15,11,22,22.30
2013,07,15,11,23,22.40
2013,07,15,11,24,22.40
2013,07,15,11,25,22.50
2013,07,15,11,26,22.70
2013,07,15,11,27,22.80
2013,07,15,11,28,22.80
2013,07,15,11,29,22.90
2013,07,15,11,30,22.90
2013,07,15,11,31,22.90
2013,07,15,11,32,22.80
2013,07,15,11,33,22.80
2013,07,15,11,34,22.80
2013,07,15,11,35,22.80
2013,07,15,11,36,22.90
2013,07,15,11,37,22.90
2013,07,15,11,38,22.90
2013,07,15,11,39,23.10
2013,07,15,11,40,23.10
2013,07,15,11,41,23.20
2013,07,15,11,42,23.30
2013,07,15,11,43,23.30
2013,07,15,11,44,23.30
2013,07,15,11,45,23.30
2013,07,15,11,46,23.30
2013,07,15,11,47,23.30
2013,07,15,11,48,23.40
2013,07,15,11,49,23.40
2013,07,15,11,50,23.60
2013,07,15,11,51,23.40
2013,07,15,11,52,23.40
2013,07,15,11,53,23.40
2013,07,15,11,54,23.40
2013,07,15,11,55,23.40
2013,07,15,11,56,23.60
2013,07,15,11,57,23.70
2013,07,15,11,58,23.70
2013,07,15,11,59,23.70
2013,07,15,12,00,23.70
2013,07,15,12,01,23.80
2013,07,15,12,02,23.90
2013,07,15,12,03,24.10
2013,07,15,12,04,24.10
2013,07,15,12,05,24.10
2013,07,15,12,06,24.10
2013,07,15,12,07,24.10
2013,07,15,12,08,24.10
2013,07,15,12,09,24.10
2013,07,15,12,10,24.20
2013,07,15,12,11,24.30
2013,07,15,12,12,24.50
2013,07,15,12,13,24.60
2013,07,15,12,14,24.70
2013,07,15,12,15,24.70
2013,07,15,12,16,24.70
2013,07,15,12,17,24.80
2013,07,15,12,18,24.90
2013,07,15,12,19,24.90
2013,07,15,12,20,24.90
2013,07,15,12,21,24.80
2013,07,15,12,22,24.70
2013,07,15,12,23,24.70
2013,07,15,12,24,24.70
2013,07,15,12,25,24.60
2013,07,15,12,26,24.60
2013,07,15,12,27,24.60
2013,07,15,12,28,24.60
2013,07,15,12,29,24.50
2013,07,15,12,30,24.50
2013,07,15,12,31,24.50
2013,07,15,12,32,24.50
2013,07,15,12,33,24.60
2013,07,15,12,34,24.70
2013,07,15,12,35,24.80
2013,07,15,12,36,24.90
2013,07,15,12,37,24.90
2013,07,15,12,38,24.90
2013,07,15,12,39,24.90
2013,07,15,12,40,24.90
2013,07,15,12,41,24.90
2013,07,15,12,42,24.90
2013,07,15,12,43,24.90
2013,07,15,12,44,24.90
2013,07,15,12,45,25.00
2013,07,15,12,46,25.10
2013,07,15,12,47,25.20
2013,07,15,12,48,25.30
2013,07,15,12,49,25.40
2013,07,15,12,50,25.60
2013,07,15,12,51,25.60
2013,07,15,12,52,25.50
2013,07,15,12,53,25.60
2013,07,15,12,54,25.60
2013,07,15,12,55,25.70
2013,07,15,12,56,25.80
2013,07,15,12,57,25.80
2013,07,15,12,58,26.00
2013,07,15,12,59,26.10
2013,07,15,13,00,26.20
2013,07,15,13,01,26.40
2013,07,15,13,02,26.40
2013,07,15,13,03,26.60
2013,07,15,13,04,26.60
2013,07,15,13,05,26.60
2013,07,15,13,06,26.70
2013,07,15,13,07,26.70
2013,07,15,13,08,26.70
2013,07,15,13,09,26.60
2013,07,15,13,10,26.60
2013,07,15,13,11,26.60
2013,07,15,13,12,26.60
2013,07,15,13,13,26.60
2013,07,15,13,14,26.40
2013,07,15,13,15,26.40
2013,07,15,13,16,26.60
2013,07,15,13,17,26.60
2013,07,15,13,18,26.70
2013,07,15,13,19,26.80
2013,07,15,13,20,26.90
2013,07,15,13,21,26.90
2013,07,15,13,22,26.90
2013,07,15,13,23,26.80
2013,07,15,13,24,26.90
2013,07,15,13,25,26.90
2013,07,15,13,26,26.90
2013,07,15,13,27,27.10
2013,07,15,13,28,27.20
2013,07,15,13,29,27.20
2013,07,15,13,30,27.20
2013,07,15,13,31,27.30
2013,07,15,13,32,27.30
2013,07,15,13,33,27.30
2013,07,15,13,34,27.40
2013,07,15,13,35,27.60
2013,07,15,13,36,27.40
2013,07,15,13,37,27.40
2013,07,15,13,38,27.40
2013,07,15,13,39,27.30
2013,07,15,13,40,27.10
2013,07,15,13,41,26.80
2013,07,15,13,42,26.80
2013,07,15,13,43,26.80
2013,07,15,13,44,26.90
2013,07,15,13,45,27.10
2013,07,15,13,46,27.30
2013,07,15,13,47,27.30
2013,07,15,13,48,27.40
2013,07,15,13,49,27.60
2013,07,15,13,50,27.60
2013,07,15,13,51,27.60
2013,07,15,13,52,27.30
2013,07,15,13,53,27.30
2013,07,15,13,54,27.30
2013,07,15,13,55,27.30
2013,07,15,13,56,27.30
2013,07,15,13,57,27.30
2013,07,15,13,58,27.30
2013,07,15,13,59,27.30
2013,07,15,14,00,27.30
2013,07,15,14,01,27.30
2013,07,15,14,02,27.20
2013,07,15,14,03,27.20
2013,07,15,14,04,27.10
2013,07,15,14,05,27.10
2013,07,15,14,06,27.10
2013,07,15,14,07,27.10
2013,07,15,14,08,27.20
2013,07,15,14,09,27.30
2013,07,15,14,10,27.30
2013,07,15,14,11,27.30
2013,07,15,14,12,27.30
2013,07,15,14,13,27.40
2013,07,15,14,14,27.40
2013,07,15,14,15,27.40
2013,07,15,14,16,27.60
2013,07,15,14,17,27.70
2013,07,15,14,18,27.70
2013,07,15,14,19,27.60
2013,07,15,14,20,27.60
2013,07,15,14,21,27.60
2013,07,15,14,22,27.60
2013,07,15,14,23,27.70
2013,07,15,14,24,27.70
2013,07,15,14,25,27.70
2013,07,15,14,26,27.80
2013,07,15,14,27,27.80
2013,07,15,14,28,27.80
2013,07,15,14,29,27.80
2013,07,15,14,30,27.80
2013,07,15,14,31,27.70
2013,07,15,14,32,27.70
2013,07,15,14,33,27.80
2013,07,15,14,34,27.90
2013,07,15,14,35,27.90
2013,07,15,14,36,28.00
2013,07,15,14,37,28.10
2013,07,15,14,38,28.20
2013,07,15,14,39,28.30
2013,07,15,14,40,28.30
2013,07,15,14,41,28.30
2013,07,15,14,42,28.20
2013,07,15,14,43,28.20
2013,07,15,14,44,28.20
2013,07,15,14,45,28.20
2013,07,15,14,46,28.10
2013,07,15,14,47,28.00
2013,07,15,14,48,28.00
2013,07,15,14,49,28.00
2013,07,15,14,50,28.00
2013,07,15,14,51,28.10
2013,07,15,14,52,28.10
2013,07,15,14,53,28.20
2013,07,15,14,54,28.30
2013,07,15,14,55,28.30
2013,07,15,14,56,28.30
2013,07,15,14,57,28.40
2013,07,15,14,58,28.60
2013,07,15,14,59,28.60
2013,07,15,15,00,28.70
2013,07,15,15,01,28.60
2013,07,15,15,02,28.70
2013,07,15,15,03,28.70
2013,07,15,15,04,28.70
2013,07,15,15,05,28.70
2013,07,15,15,06,28.70
2013,07,15,15,07,28.80
2013,07,15,15,08,28.90
2013,07,15,15,09,28.90
2013,07,15,15,10,28.90
2013,07,15,15,11,28.90
2013,07,15,15,12,28.90
2013,07,15,15,13,28.90
2013,07,15,15,14,29.10
2013,07,15,15,15,29.10
2013,07,15,15,16,29.10
2013,07,15,15,17,29.20
2013,07,15,15,18,29.20
2013,07,15,15,19,29.20
2013,07,15,15,20,29.20
2013,07,15,15,21,29.20
2013,07,15,15,22,29.20
2013,07,15,15,23,29.20
2013,07,15,15,24,29.10
2013,07,15,15,25,29.10
2013,07,15,15,26,29.10
2013,07,15,15,27,29.10
2013,07,15,15,28,29.10
2013,07,15,15,29,29.10
2013,07,15,15,30,29.20
2013,07,15,15,31,29.20
2013,07,15,15,32,29.10
2013,07,15,15,33,29.10
2013,07,15,15,34,28.90
2013,07,15,15,35,28.70
2013,07,15,15,36,28.70
2013,07,15,15,37,28.80
2013,07,15,15,38,28.80
2013,07,15,15,39,28.80
2013,07,15,15,40,28.90
2013,07,15,15,41,28.90
2013,07,15,15,42,28.90
2013,07,15,15,43,28.90
2013,07,15,15,44,28.90
2013,07,15,15,45,28.90
2013,07,15,15,46,29.10
2013,07,15,15,47,29.10
2013,07,15,15,48,29.10
2013,07,15,15,49,29.20
2013,07,15,15,50,29.20
2013,07,15,15,51,29.30
2013,07,15,15,52,29.30
2013,07,15,15,53,29.30
2013,07,15,15,54,29.30
2013,07,15,15,55,29.30
2013,07,15,15,56,29.40
2013,07,15,15,57,29.50
2013,07,15,15,58,29.60
2013,07,15,15,59,29.60
2013,07,15,16,00,29.70
2013,07,15,16,01,29.80
2013,07,15,16,02,29.90
2013,07,15,16,03,29.80
2013,07,15,16,04,29.90
2013,07,15,16,05,29.80
2013,07,15,16,06,29.80
2013,07,15,16,07,29.80
2013,07,15,16,08,29.80
2013,07,15,16,09,29.80
2013,07,15,16,10,29.80
2013,07,15,16,11,29.80
2013,07,15,16,12,29.90
2013,07,15,16,13,29.90
2013,07,15,16,14,29.90
2013,07,15,16,15,29.90
2013,07,15,16,16,29.90
2013,07,15,16,17,29.80
2013,07,15,16,18,29.70
2013,07,15,16,19,29.70
2013,07,15,16,20,29.70
2013,07,15,16,21,29.70
2013,07,15,16,22,29.70
2013,07,15,16,23,29.70
2013,07,15,16,24,29.80
2013,07,15,16,25,29.90
2013,07,15,16,26,30.10
2013,07,15,16,27,30.10
2013,07,15,16,28,29.90
2013,07,15,16,29,29.90
2013,07,15,16,30,29.90
2013,07,15,16,31,29.70
2013,07,15,16,32,29.50
2013,07,15,16,33,29.30
2013,07,15,16,34,28.90
2013,07,15,16,35,28.90
2013,07,15,16,36,28.80
2013,07,15,16,37,28.70
2013,07,15,16,38,28.60
2013,07,15,16,39,28.40
2013,07,15,16,40,28.40
2013,07,15,16,41,28.60
2013,07,15,16,42,28.70
2013,07,15,16,43,28.80
2013,07,15,16,44,28.90
2013,07,15,16,45,28.80
2013,07,15,16,46,28.70
2013,07,15,16,47,28.70
2013,07,15,16,48,28.80
2013,07,15,16,49,28.80
2013,07,15,16,50,28.70
2013,07,15,16,51,28.40
2013,07,15,16,52,28.30
2013,07,15,16,53,28.20
2013,07,15,16,54,28.20
2013,07,15,16,55,28.30
2013,07,15,16,56,28.30
2013,07,15,16,57,28.40
2013,07,15,16,58,28.70
2013,07,15,16,59,28.90
2013,07,15,17,00,28.90
2013,07,15,17,01,29.10
2013,07,15,17,02,29.20
2013,07,15,17,03,29.20
2013,07,15,17,04,29.30
2013,07,15,17,05,29.40
2013,07,15,17,06,29.40
2013,07,15,17,07,29.40
2013,07,15,17,08,29.40
2013,07,15,17,09,29.30
2013,07,15,17,10,29.40
2013,07,15,17,11,29.40
2013,07,15,17,12,29.50
2013,07,15,17,13,29.60
2013,07,15,17,14,29.80
2013,07,15,17,15,29.80
2013,07,15,17,16,29.90
2013,07,15,17,17,30.10
2013,07,15,17,18,30.10
2013,07,15,17,19,30.20
2013,07,15,17,20,29.80
2013,07,15,17,21,29.60
2013,07,15,17,22,29.50
2013,07,15,17,23,29.30
2013,07,15,17,24,29.20
2013,07,15,17,25,29.20
2013,07,15,17,26,29.20
2013,07,15,17,27,29.20
2013,07,15,17,28,29.10
2013,07,15,17,29,28.90
2013,07,15,17,30,28.90
2013,07,15,17,31,29.10
2013,07,15,17,32,29.10
2013,07,15,17,33,29.10
2013,07,15,17,34,28.90
2013,07,15,17,35,28.90
2013,07,15,17,36,29.10
2013,07,15,17,37,29.20
2013,07,15,17,38,29.20
2013,07,15,17,39,29.30
2013,07,15,17,40,29.30
2013,07,15,17,41,29.40
2013,07,15,17,42,29.40
2013,07,15,17,43,29.40
2013,07,15,17,44,29.40
2013,07,15,17,45,29.50
2013,07,15,17,46,29.60
2013,07,15,17,47,29.70
2013,07,15,17,48,29.70
2013,07,15,17,49,29.80
2013,07,15,17,50,29.80
2013,07,15,17,51,29.80
2013,07,15,17,52,29.80
2013,07,15,17,53,29.80
2013,07,15,17,54,29.70
2013,07,15,17,55,29.60
2013,07,15,17,56,29.40
2013,07,15,17,57,29.40
2013,07,15,17,58,29.40
2013,07,15,17,59,29.30
2013,07,15,18,00,29.30
2013,07,15,18,01,29.30
2013,07,15,18,02,29.20
2013,07,15,18,03,28.90
2013,07,15,18,04,28.90
2013,07,15,18,05,28.90
2013,07,15,18,06,29.10
2013,07,15,18,07,29.20
2013,07,15,18,08,29.20
2013,07,15,18,09,29.30
2013,07,15,18,10,29.40
2013,07,15,18,11,29.50
2013,07,15,18,12,29.60
2013,07,15,18,13,29.60
2013,07,15,18,14,29.60
2013,07,15,18,15,29.70
2013,07,15,18,16,29.70
2013,07,15,18,17,29.70
2013,07,15,18,18,29.70
2013,07,15,18,19,29.70
2013,07,15,18,20,29.70
2013,07,15,18,21,29.70
2013,07,15,18,22,29.40
2013,07,15,18,23,29.30
2013,07,15,18,24,29.30
2013,07,15,18,25,29.30
2013,07,15,18,26,29.30
2013,07,15,18,27,29.30
2013,07,15,18,28,29.30
2013,07,15,18,29,29.30
2013,07,15,18,30,29.30
2013,07,15,18,31,29.30
2013,07,15,18,32,29.30
2013,07,15,18,33,29.10
2013,07,15,18,34,28.90
2013,07,15,18,35,28.90
2013,07,15,18,36,28.90
2013,07,15,18,37,28.90
2013,07,15,18,38,29.10
2013,07,15,18,39,29.20
2013,07,15,18,40,29.30
2013,07,15,18,41,29.30
2013,07,15,18,42,29.30